Weather Roundup
Issued by NWS Chicago, IL

Home | Current Version | Previous Version | Text Only | Print | Product List | Glossary Off
Versions: 1 2 3 4 5 6 7 8 9 10 11 12 13 14 15 16 17 18 19 20 21 22 23 24 25 26 27 28 29 30 31 32 33 34 35 36 37 38 39 40 41 42 43 44 45 46 47 48 49 50

161
NZUS59 KLOT 051803
HRRLOT

CHICAGO AREA WEATHER ROUNDUP
NATIONAL WEATHER SERVICE CHICAGO/ROMEOVILLE IL
1200 PM CST FRI FEB 05 2016

NOTE: "FAIR" INDICATES FEW OR NO CLOUDS BELOW 12,000 FEET WITH NO
SIGNIFICANT WEATHER AND/OR OBSTRUCTIONS TO VISIBILITY.

* THESE STATIONS ARE NOT UNDER NWS QUALITY CONTROL. THEY ALSO MAY NOT
  REPORT WEATHER SUCH AS PRECIPITATION OR FOG.

ILZ005-006-012>014-019>023-051900-
NORTHEAST ILLINOIS

CITY           SKY/WX    TMP DP  RH WIND       PRES   REMARKS
OHARE          PTSUNNY   31  22  69 NW10      30.34F WCI  22
6HR MIN TEMP:  26; 6HR MAX TEMP:  31;

MIDWAY         PTSUNNY   32  22  66 NW8       30.35F WCI  25
6HR MIN TEMP:  27; 6HR MAX TEMP:  32; 6HR PCP: TRACE;

AURORA         CLOUDY    28  21  75 N10       30.37F WCI  19
6HR MIN TEMP:  28; 6HR MAX TEMP:  29;

LANSING*       CLOUDY    32  25  73 NW5       30.34F WCI  28
WAUKEGAN       MOSUNNY   29  21  72 NW7       30.34F WCI  22
6HR MIN TEMP:  25; 6HR MAX TEMP:  29;

DUPAGE AIRPORT PTSUNNY   28  21  75 NW9       30.35F WCI  19
6HR MIN TEMP:  27; 6HR MAX TEMP:  29;

WHEELING       CLOUDY    30  22  72 NW9       30.36F WCI  22
6HR MIN TEMP:  27; 6HR MAX TEMP:  30;

$$

WIZ051-052-058>065-066-070>072-051900-
SOUTHEAST WISCONSIN

CITY           SKY/WX    TMP DP  RH WIND       PRES   REMARKS
MILWAUKEE      PTSUNNY   29  17  61 CALM      30.34F
6HR MIN TEMP:  25; 6HR MAX TEMP:  29;

KENOSHA*       CLOUDY    28  20  71 W10       30.35F WCI  19
RACINE*        CLOUDY    29  17  61 W8        30.36F WCI  21
BURLINGTON     SUNNY     27  18  67 W6        30.35F WCI  20
WAUKESHA       SUNNY     25  18  74 W8        30.35F WCI  16
$$

INZ001>003-010>013-019-020-051900-
NORTHWEST INDIANA

CITY           SKY/WX    TMP DP  RH WIND       PRES   REMARKS
GARY*          CLOUDY    34  25  69 N8        30.35F WCI  27
MICHIGAN CITY* NOT AVBL
RENSSELAER*    NOT AVBL
VALPARAISO     CLOUDY    33  26  75 CALM      30.33F
$$

LMZ740>746-051900-
SOUTHERN LAKE MICHIGAN

STATION/POSITION TIME  SKY/WX   TEMP WIND        PRES    VSBY
                                AIR  DIR/SP/G
                 (UTC)          (F)  (DEG/KT/KT) (MB)    (MI)
HARRISON CRIB    1700            29  350/ 16/ 17   N/A
BURNHAM HARBOR   1800            30   10/  7/ 12   N/A
CALUMET HARBOR   1700            30  340/ 11/ 14 1027.2
BURNS HARBOR     1700            30  330/ 12/ 15 1028.1S
MICHIGAN CITY    1700            31  240/  9/  9   N/A
$$

ABBREVIATIONS USED IN REMARKS
   TC - TEMPERATURE IN CELSIUS
  WCI - WIND CHILL INDEX
   HX - HEAT INDEX
  VSB - VISIBILITY
$$




USA.gov is the U.S. government's official web portal to all federal, state and local government web resources and services.